Wind_Speed
6 9 8 2 4 7 15 18 19 1 2 6 5 2 12 10 11 5 12 14 15 9 9 10 11 12 12 13 11 10 9 6 5 4 3 3 4 5 6 6 6 8 10 10 9 10 12 10 9
11 13 2 7 6 11 11 6 9 6 24 7 2 4 5 3 13 14 13 11 13 7 9 10 12 13 14 14 13 12 10 8 5 3 2 3 5 6 6 7 7 7 9 11 12 10 10 11 10
13 9 11 5 10 14 13 7 7 8 12 4 5 4 3 4 12 12 10 8 13 12 12 11 12 14 15 15 15 13 11 9 6 3 1 2 5 6 6 6 6 7 8 8 9 10 10 10 11
9 9 12 8 18 21 16 11 12 20 11 2 4 5 4 9 6 6 4 7 14 11 11 14 13 14 15 17 17 15 13 11 8 6 4 4 5 8 8 7 7 8 9 10 10 12 12 11 10
10 13 11 14 19 20 17 11 10 6 10 7 2 4 13 10 10 7 5 9 11 15 14 12 16 16 17 19 18 17 15 13 11 9 7 7 8 9 10 9 9 10 11 12 13 13 15 15 13
11 12 11 14 21 21 17 1 14 10 11 11 6 6 2 9 12 6 4 8 9 13 18 19 16 19 20 21 21 19 17 15 13 12 10 10 11 12 13 13 10 13 14 14 14 15 17 17 17
19 12 16 20 21 21 8 8 13 15 7 11 11 4 7 15 6 0 4 8 11 13 18 21 20 20 23 24 24 22 20 18 16 16 15 14 15 15 16 15 12 14 16 15 15 15 16 18 20
23 12 22 20 19 21 19 9 15 15 9 8 4 3 5 3 5 6 8 12 14 16 22 25 23 24 26 30 29 27 25 22 21 19 19 19 19 19 19 13 13 14 13 14 16 16 17 18 19
23 15 16 22 23 21 22 17 18 24 3 17 13 14 15 16 19 18 13 15 17 16 22 28 26 25 24 31 33 32 30 27 27 25 23 22 21 20 13 14 16 18 17 18 20 20 17 16 17
21 16 26 21 22 21 23 19 25 17 9 15 21 23 19 18 11 14 17 20 21 22 24 29 29 29 28 24 31 33 35 31 31 29 26 24 20 13 7 16 17 19 18 15 15 10 9 11 13
27 23 24 26 29 31 26 26 30 26 18 23 25 25 23 19 22 20 22 25 24 24 27 28 33 33 32 28 22 28 28 31 36 31 28 23 14 9 15 15 15 17 15 16 16 9 10 9 6
26 35 34 35 35 35 27 33 33 32 31 25 32 27 23 19 21 25 27 27 23 26 27 30 28 33 32 30 26 29 31 26 29 29 24 20 17 23 17 15 16 15 17 16 12 14 15 10 12
29 29 38 39 37 37 38 33 31 36 37 37 35 31 33 26 24 31 28 26 23 26 24 26 23 30 28 35 29 29 29 23 21 18 19 22 21 16 12 13 13 15 13 14 12 14 17 16 14
34 35 37 40 38 38 30 32 36 36 39 36 36 33 34 36 26 31 25 27 25 24 23 22 15 23 26 32 36 31 31 25 24 24 24 22 21 16 19 18 19 23 18 18 22 22 20 17 16
40 31 30 31 36 32 36 32 29 37 38 35 40 37 36 35 30 32 20 26 25 26 20 17 17 16 26 32 34 33 32 29 27 29 20 22 21 17 19 16 16 18 16 18 23 24 22 16 16
32 32 30 28 30 38 32 32 25 37 33 33 33 34 34 30 29 16 23 26 27 25 22 17 18 20 27 34 33 32 24 29 22 20 22 22 22 20 16 15 17 17 20 22 20 20 19 17 18
29 24 33 31 29 29 29 33 26 37 36 34 31 31 30 34 24 18 26 26 25 22 20 20 21 21 28 32 28 25 26 27 27 18 18 17 18 16 14 15 16 19 22 20 20 17 15 16 15
22 30 30 28 26 28 31 29 27 32 35 32 32 25 25 37 29 20 26 29 22 17 16 17 21 22 27 26 21 22 26 21 16 19 18 15 16 15 16 18 19 21 20 18 16 16 14 13 14
27 31 33 29 27 28 26 25 28 24 26 26 28 23 29 37 33 25 24 32 17 21 24 25 23 27 29 23 22 22 22 22 20 17 14 15 16 18 17 18 21 20 20 17 16 12 13 14 13
34 32 30 29 28 24 23 26 26 22 22 26 26 26 26 32 26 22 23 17 16 17 18 19 20 23 26 23 21 21 21 14 13 13 14 16 16 18 18 18 22 20 16 15 14 14 14 15 15
31 31 28 31 25 27 24 26 25 24 27 27 28 32 25 25 33 40 25 15 16 13 13 14 17 23 24 22 20 16 17 12 16 16 13 17 17 16 15 16 14 13 13 12 10 11 14 14 14
29 28 29 28 23 20 19 19 25 20 21 20 25 25 26 26 35 32 20 19 15 11 12 15 20 20 22 18 19 21 17 15 12 10 10 8 8 16 15 15 14 11 8 8 10 11 13 14 14
34 21 27 28 25 21 23 14 29 17 17 16 13 20 25 27 27 15 19 20 14 14 15 17 19 22 19 23 17 18 14 10 6 6 10 14 17 16 15 14 10 8 8 11 10 12 13 14 14
26 26 29 26 19 19 26 19 29 19 19 17 16 24 26 21 22 23 21 20 19 17 18 19 21 21 22 22 15 13 11 8 9 8 8 11 15 10 10 7 7 8 7 10 10 10 9 11 12
31 23 17 19 17 21 17 19 23 21 19 18 18 19 22 18 21 29 26 23 21 21 21 22 24 21 20 16 14 13 11 12 10 7 9 11 8 7 4 5 8 6 6 5 7 8 10 9 10
29 25 16 25 17 19 21 26 20 21 21 25 20 14 18 24 22 26 23 24 24 24 23 22 23 18 17 14 11 9 6 2 2 9 8 6 5 4 4 5 3 2 3 4 4 7 6 7 8
30 28 31 22 21 19 16 18 30 27 20 14 7 15 21 22 24 23 24 25 26 26 25 23 20 18 16 13 11 8 5 4 2 7 7 4 1 3 3 3 3 6 5 5 4 4 5 5 8
31 21 25 19 25 24 20 22 14 11 15 12 13 9 17 25 25 24 25 27 27 25 24 21 19 18 16 13 10 8 4 3 4 7 3 2 7 6 3 2 5 7 2 4 5 5 4 5 6
24 25 23 21 18 16 15 14 12 2 9 6 9 17 18 26 25 27 26 27 26 25 23 21 19 17 15 13 9 7 4 4 4 6 3 4 11 5 1 3 7 7 7 6 5 5 6 5 4
29 25 25 19 24 17 13 15 5 2 5 5 11 21 29 27 26 28 28 27 26 24 22 20 19 16 14 12 9 7 4 6 2 1 1 5 10 10 4 5 5 4 2 4 3 4 5 5 4
Wind_Direction
202 166 149 189 250 234 244 247 278 38 263 91 25 346 355 339 15 58 140 140 169 176 156 159 170 173 177 173 173 174 172 163 152 121 82 44 16 348 323 298 278 280 288 291 288 288 293 285 275
169 159 207 259 250 253 246 330 31 278 21 26 272 270 278 11 45 91 127 133 174 204 178 176 176 180 185 181 182 184 180 176 164 141 82 30 12 351 326 301 281 268 275 287 292 292 288 288 281
171 218 260 224 233 249 272 191 202 186 206 276 310 141 240 71 83 79 108 141 176 216 189 187 187 188 190 189 189 190 191 190 183 198 240 342 350 346 327 307 282 278 278 278 279 283 283 280 279
172 219 252 253 264 249 263 178 109 247 234 113 253 339 64 120 115 109 115 166 183 197 213 193 197 198 199 198 199 199 201 204 205 219 245 287 319 334 325 303 286 277 279 288 280 277 279 271 259
237 251 248 255 258 267 288 272 158 282 299 272 218 28 79 114 127 114 133 181 192 192 223 208 203 207 210 209 208 208 212 215 223 236 254 282 299 310 316 301 291 285 281 283 276 272 269 260 257
223 224 259 254 253 257 264 21 293 303 304 287 257 280 114 159 123 104 143 198 212 217 209 239 222 216 214 216 215 217 219 226 236 247 259 278 286 294 301 302 292 281 279 281 277 272 272 262 258
241 244 243 256 270 279 271 284 267 286 302 14 0 161 342 110 124 260 200 217 215 221 215 232 237 232 224 221 220 221 223 229 240 249 259 270 278 283 288 298 299 293 280 282 278 274 277 272 261
236 254 264 267 270 270 287 281 282 287 281 65 25 258 299 196 170 177 259 245 229 221 217 217 234 237 237 226 225 221 224 229 239 246 256 264 271 279 288 297 301 301 295 297 288 281 283 279 272
235 253 253 257 262 272 284 314 302 285 157 285 302 298 295 290 278 306 300 278 280 275 227 219 215 242 237 233 229 227 225 227 234 240 249 258 265 283 297 303 301 289 287 298 297 289 286 284 274
228 242 243 246 269 280 274 264 270 277 268 255 296 272 259 281 316 269 276 287 285 288 293 227 219 216 241 237 237 231 230 231 234 237 245 252 263 279 280 258 267 283 293 294 311 306 296 295 276
231 242 249 256 254 270 274 295 293 291 267 274 281 278 297 294 303 293 286 278 289 294 292 304 228 218 220 228 227 242 234 233 236 237 241 251 258 258 256 273 278 278 275 279 296 280 275 306 318
240 236 242 254 260 269 274 276 285 289 293 284 278 287 289 291 297 294 284 283 292 290 293 290 266 219 221 218 212 237 239 241 233 233 235 234 227 235 247 240 241 266 279 292 274 277 274 261 254
238 245 249 252 258 261 267 272 278 279 283 289 291 285 288 284 273 275 273 285 293 293 294 285 260 219 230 222 210 220 232 235 234 228 232 234 240 241 242 249 242 247 247 262 269 260 262 247 249
247 244 255 259 257 257 263 270 272 275 283 282 279 273 276 270 275 277 278 287 294 293 286 280 255 233 237 239 220 215 219 220 222 216 225 235 247 239 230 240 249 248 273 254 243 249 259 244 239
252 259 261 256 261 263 269 265 260 271 270 270 274 276 274 275 273 265 273 289 304 303 282 266 252 242 244 242 222 213 220 213 220 217 224 235 246 250 237 233 239 264 268 265 259 258 256 239 231
249 253 257 251 255 258 259 263 264 270 276 274 278 279 272 265 262 271 283 287 299 289 270 256 249 245 244 240 226 215 216 216 215 230 222 235 242 257 247 249 254 257 254 262 270 264 257 258 233
245 248 251 250 248 264 258 267 265 256 257 259 260 269 272 275 265 270 283 289 288 281 262 249 239 229 238 233 230 224 213 224 220 218 225 239 256 269 268 266 255 255 259 267 269 262 254 247 233
223 235 241 256 248 249 248 254 261 257 257 259 249 258 268 274 266 265 278 290 277 248 235 228 231 215 228 228 231 207 211 215 202 219 224 230 248 251 247 258 260 264 269 272 258 259 243 236 237
237 240 246 253 252 247 254 261 266 276 274 261 269 267 268 262 265 260 263 279 251 250 247 246 228 211 215 216 201 200 200 211 218 219 228 233 239 244 258 261 265 269 274 268 258 247 238 223 226
242 251 253 262 265 260 261 257 259 248 252 261 264 243 255 280 289 282 276 239 246 250 249 235 220 214 207 206 196 195 199 220 211 225 235 243 241 260 261 266 267 273 265 260 251 238 226 222 233
238 238 245 256 265 266 268 269 270 268 270 265 258 270 258 259 278 281 274 227 235 235 234 209 191 195 199 193 178 196 195 199 200 203 219 252 253 258 277 273 278 271 265 254 242 221 223 236 237
242 233 243 249 251 257 254 269 256 262 264 257 255 255 259 252 257 255 246 202 204 208 195 185 187 196 177 181 186 192 189 205 229 233 217 228 254 279 277 274 278 273 247 233 234 233 235 244 236
245 244 248 247 251 261 254 259 267 269 268 269 276 267 261 253 261 257 192 183 174 180 174 179 184 162 173 176 197 190 182 213 211 224 244 268 266 271 272 273 273 264 232 225 234 244 240 237 226
247 240 251 258 257 247 243 242 264 258 263 270 270 262 249 256 241 238 157 156 155 161 166 172 164 160 186 170 183 183 203 182 181 218 237 268 290 286 271 255 260 252 243 238 245 237 230 214 213
237 236 234 236 235 241 244 241 255 265 266 272 273 267 269 260 252 144 148 150 154 162 165 167 163 178 173 172 186 181 195 210 218 245 261 280 288 292 249 206 249 253 237 234 231 215 198 200 205
225 232 228 223 226 241 240 252 260 254 258 254 282 233 241 237 131 137 150 154 156 162 165 166 167 168 167 175 171 176 182 160 215 250 287 269 274 264 189 205 230 205 110 125 171 171 192 206 211
234 221 235 249 240 245 255 243 236 243 245 241 239 234 235 140 139 148 153 157 161 164 167 168 165 166 169 169 170 170 179 181 269 301 300 250 303 128 138 174 192 129 167 189 198 179 181 202 222
236 228 223 230 232 246 236 240 253 186 225 226 196 222 201 143 143 153 156 160 161 165 166 167 166 170 169 171 171 162 185 191 237 287 285 171 126 143 187 176 148 146 160 189 195 191 163 165 153
227 227 221 241 225 236 246 264 295 83 171 174 195 196 189 146 152 155 158 160 161 164 166 166 167 170 170 171 165 178 178 162 240 311 144 152 140 159 139 104 137 167 184 222 217 184 174 153 135
233 226 230 218 218 228 247 238 68 134 229 175 260 180 151 151 156 157 159 161 162 165 166 168 171 170 171 168 164 173 180 198 251 143 137 137 139 143 130 118 122 143 180 167 158 140 149 150 148
Height
1510 1511 1513 1514 1518 1501 1492 1478 1455 1460 1460 1461 1465 1468 1470 1470 1471 1486 1485 1487 1487 1489 1491 1493 1494 1495 1498 1500 1502 1505 1506 1508 1510 1511 1511 1511 1511 1511 1511 1512 1512 1512 1514 1513 1514 1515 1516 1517 1518
1511 1513 1513 1512 1510 1504 1484 1464 1476 1466 1465 1467 1466 1467 1468 1471 1474 1481 1487 1489 1487 1488 1490 1492 1493 1495 1496 1498 1501 1503 1505 1506 1508 1509 1510 1510 1511 1511 1511 1511 1510 1511 1512 1512 1512 1513 1514 1515 1516
1511 1513 1514 1503 1495 1497 1480 1468 1466 1468 1470 1467 1464 1465 1469 1474 1477 1483 1486 1489 1487 1487 1489 1491 1492 1493 1495 1497 1498 1500 1503 1504 1504 1507 1508 1508 1509 1509 1509 1510 1509 1509 1510 1511 1511 1511 1512 1513 1514
1511 1514 1513 1502 1493 1469 1464 1466 1462 1475 1462 1464 1466 1467 1469 1473 1478 1482 1485 1488 1487 1487 1487 1489 1491 1492 1493 1495 1497 1498 1499 1502 1503 1504 1505 1506 1507 1507 1507 1507 1507 1508 1508 1508 1509 1510 1510 1511 1512
1512 1508 1502 1493 1483 1466 1456 1453 1454 1463 1460 1460 1461 1468 1474 1476 1478 1481 1482 1486 1488 1487 1486 1487 1488 1490 1491 1493 1495 1497 1499 1500 1502 1503 1503 1504 1504 1505 1505 1505 1505 1505 1505 1506 1506 1507 1508 1509 1509
1511 1504 1503 1496 1479 1463 1455 1458 1457 1457 1460 1460 1462 1468 1472 1474 1478 1482 1483 1485 1487 1487 1484 1484 1487 1487 1488 1489 1492 1495 1497 1499 1501 1501 1501 1502 1502 1503 1502 1502 1502 1502 1502 1503 1503 1504 1505 1506 1506
1504 1498 1495 1485 1475 1462 1456 1460 1462 1459 1459 1461 1464 1467 1474 1475 1476 1479 1481 1483 1483 1485 1483 1484 1486 1487 1487 1487 1489 1491 1494 1496 1497 1498 1499 1499 1500 1500 1500 1500 1499 1499 1499 1500 1500 1501 1501 1502 1502
1502 1498 1492 1481 1476 1469 1456 1459 1463 1462 1461 1465 1468 1470 1473 1475 1474 1475 1478 1478 1475 1475 1477 1474 1480 1484 1485 1485 1486 1487 1490 1492 1494 1495 1496 1496 1496 1497 1497 1496 1496 1496 1497 1497 1497 1498 1498 1498 1498
1501 1499 1493 1483 1475 1465 1459 1460 1460 1464 1461 1467 1469 1471 1472 1472 1472 1472 1475 1476 1475 1475 1470 1467 1469 1474 1478 1481 1482 1484 1485 1487 1489 1490 1491 1492 1492 1493 1493 1491 1493 1492 1493 1493 1493 1493 1495 1495 1494
1495 1491 1482 1473 1469 1463 1459 1459 1461 1467 1462 1470 1471 1468 1467 1469 1469 1473 1472 1472 1472 1471 1472 1463 1463 1461 1469 1473 1478 1480 1482 1482 1483 1485 1486 1487 1488 1489 1490 1490 1490 1490 1490 1490 1490 1489 1490 1491 1491
1489 1480 1477 1469 1467 1465 1462 1462 1460 1458 1458 1463 1461 1462 1464 1465 1466 1468 1468 1468 1467 1467 1467 1467 1458 1458 1460 1463 1469 1474 1476 1476 1478 1480 1481 1482 1484 1485 1488 1488 1486 1485 1486 1487 1487 1487 1488 1488 1488
1482 1472 1474 1470 1465 1463 1460 1460 1457 1457 1456 1457 1459 1458 1459 1461 1464 1465 1466 1464 1463 1462 1461 1460 1456 1455 1457 1458 1463 1466 1471 1471 1472 1474 1476 1477 1479 1481 1482 1484 1485 1483 1483 1483 1484 1484 1484 1486 1487
1467 1467 1466 1463 1461 1459 1459 1455 1455 1454 1455 1454 1454 1455 1455 1456 1458 1460 1459 1458 1457 1456 1455 1456 1450 1451 1452 1454 1459 1463 1466 1468 1470 1471 1473 1475 1476 1477 1478 1479 1481 1480 1480 1481 1481 1481 1482 1482 1484
1463 1462 1458 1455 1453 1453 1453 1449 1451 1450 1452 1450 1450 1450 1451 1450 1451 1452 1452 1452 1451 1449 1448 1450 1447 1448 1449 1449 1454 1459 1464 1467 1469 1470 1471 1469 1472 1474 1475 1476 1476 1476 1476 1476 1476 1477 1477 1479 1480
1461 1456 1450 1445 1448 1443 1450 1438 1440 1445 1446 1443 1445 1443 1444 1443 1444 1443 1444 1446 1444 1445 1444 1444 1444 1445 1446 1446 1450 1455 1460 1464 1465 1466 1468 1468 1468 1470 1471 1471 1472 1471 1471 1471 1472 1472 1473 1474 1476
1454 1453 1446 1439 1444 1438 1446 1433 1434 1440 1438 1437 1437 1436 1436 1435 1436 1436 1439 1440 1439 1439 1439 1439 1440 1439 1441 1442 1446 1453 1456 1459 1461 1463 1465 1466 1466 1466 1467 1467 1467 1468 1467 1466 1467 1467 1468 1470 1471
1444 1445 1440 1436 1434 1436 1434 1428 1425 1431 1430 1428 1430 1431 1430 1430 1429 1430 1435 1434 1433 1432 1432 1433 1434 1434 1437 1438 1443 1448 1452 1454 1459 1461 1461 1462 1462 1462 1463 1463 1463 1463 1462 1463 1462 1463 1464 1466 1467
1442 1440 1425 1432 1426 1426 1425 1423 1416 1420 1420 1418 1418 1421 1423 1424 1422 1424 1428 1428 1425 1425 1427 1428 1429 1430 1432 1435 1440 1444 1448 1452 1455 1457 1459 1460 1460 1460 1460 1460 1459 1458 1458 1457 1459 1460 1461 1463 1465
1429 1423 1426 1421 1417 1419 1419 1418 1410 1412 1411 1410 1413 1414 1417 1417 1417 1417 1419 1421 1418 1420 1421 1422 1424 1426 1428 1431 1437 1442 1446 1449 1452 1454 1456 1456 1456 1456 1457 1455 1454 1453 1453 1453 1455 1456 1459 1461 1462
1424 1424 1422 1414 1412 1412 1410 1407 1400 1402 1403 1402 1403 1404 1407 1410 1411 1412 1413 1411 1412 1414 1415 1416 1419 1422 1425 1431 1436 1441 1445 1447 1449 1451 1452 1452 1453 1452 1452 1451 1450 1449 1450 1450 1451 1453 1455 1458 1459
1419 1419 1419 1419 1417 1405 1408 1406 1399 1393 1393 1393 1395 1397 1400 1404 1405 1404 1407 1405 1408 1410 1410 1412 1416 1420 1425 1430 1436 1441 1444 1445 1447 1448 1449 1449 1449 1448 1447 1447 1446 1446 1447 1447 1449 1450 1453 1454 1456
1412 1406 1414 1413 1419 1417 1408 1420 1393 1392 1387 1386 1387 1390 1392 1395 1396 1398 1399 1400 1404 1406 1408 1411 1415 1419 1425 1431 1436 1438 1440 1443 1445 1447 1446 1446 1445 1444 1444 1443 1443 1443 1444 1445 1447 1448 1449 1451 1452
1394 1413 1405 1405 1408 1410 1409 1417 1368 1384 1383 1380 1381 1383 1384 1386 1387 1389 1392 1397 1400 1404 1407 1411 1415 1420 1427 1431 1435 1437 1439 1443 1443 1444 1444 1444 1443 1442 1441 1440 1441 1441 1442 1444 1444 1445 1448 1449 1451
1400 1406 1406 1402 1400 1411 1394 1410 1370 1385 1378 1375 1374 1374 1375 1378 1380 1382 1388 1396 1399 1405 1408 1411 1416 1421 1426 1431 1434 1436 1438 1439 1441 1442 1442 1440 1439 1438 1438 1438 1439 1439 1441 1442 1443 1444 1445 1447 1449
1399 1402 1415 1418 1409 1399 1387 1394 1373 1370 1366 1367 1367 1367 1370 1372 1375 1378 1386 1393 1398 1404 1408 1412 1418 1421 1426 1430 1432 1434 1435 1437 1438 1439 1439 1438 1437 1436 1436 1437 1438 1438 1439 1440 1441 1443 1445 1447 1449
1389 1391 1393 1411 1401 1393 1387 1380 1366 1354 1355 1358 1355 1360 1365 1367 1372 1379 1387 1392 1398 1404 1409 1414 1418 1422 1426 1429 1431 1433 1434 1436 1437 1437 1437 1436 1435 1435 1436 1437 1438 1438 1439 1440 1441 1443 1446 1447 1448
1380 1388 1367 1387 1375 1385 1364 1353 1348 1343 1345 1348 1353 1357 1360 1363 1371 1380 1386 1392 1398 1404 1410 1414 1418 1422 1426 1429 1431 1432 1434 1435 1436 1435 1434 1434 1435 1435 1436 1437 1438 1439 1440 1441 1442 1444 1445 1447 1447
1373 1366 1388 1375 1396 1393 1369 1362 1348 1335 1340 1339 1347 1353 1358 1363 1372 1381 1388 1394 1400 1406 1411 1415 1419 1423 1426 1428 1430 1432 1434 1435 1435 1434 1433 1434 1435 1436 1437 1438 1439 1441 1442 1443 1444 1444 1444 1447 1447
1367 1366 1363 1366 1366 1378 1384 1363 1329 1332 1333 1338 1341 1349 1354 1362 1372 1381 1389 1396 1401 1406 1411 1415 1419 1422 1425 1427 1429 1431 1433 1434 1434 1433 1433 1434 1435 1438 1439 1439 1440 1442 1443 1444 1444 1445 1446 1448 1449
1356 1355 1356 1361 1368 1361 1365 1360 1328 1330 1331 1334 1337 1342 1352 1362 1372 1381 1389 1396 1402 1407 1410 1414 1418 1421 1424 1426 1428 1430 1432 1432 1433 1433 1433 1433 1435 1438 1440 1442 1442 1443 1444 1444 1445 1446 1446 1448 1448